SWAS

Satellite information

Favourite Embed

Satellite Type and Status

PAYLOADIN ORBIT

Key statistics

Satellite SWAS at a glance.

Uptime

9821

Days in orbit

Revolutions

≈ 15.1

Per day

Orbit

LEO

Low Earth Orbit

Inclination

69.9

Latest

Satellite identification and parameters

Extended collection of information and parameters for SWAS.

Object identification

Identified? True

Debris? False

Object name: SWAS

International designator: 1998-071A

Object number (NORAD): 25560

Object ID (CCSDS): 25560

Country: UNITED STATES OF AMERICA (US)

Current information (Y/N): Y

RCS size: LARGE

Orbital parameters

Period: 95.535 minutes

Inclination: 69.8949 deg

SMA: 6922.597 km

Apoapsis: 550.707 km

Periapsis: 538.217 km

RAAN: 110.7819 deg

Eccentricy: 0.00090213

Argument of periapsis: 261.1371 deg

Mean anomaly: 98.877 deg

Mean motion: 15.07298085 rev/day

Mean motion (dot): 0.00004237 rev/day2

B* drag term: 0.00028656814 1/REarth

Two-line elements (TLE)

Creation date: Oct. 26, 2025, 2:54 a.m.

Reference frame: TEME

Reference center: EARTH

Epoch: Oct. 25, 2025, 9:27 p.m. UTC

TLE line 0: 0 SWAS

TLE line 1: 1 25560U 98071A 25298.89394318 .00004237 00000-0 28657-3 0 9991

TLE line 2: 2 25560 69.8949 110.7819 0009021 261.1371 98.8770 15.07298085461932

Live tracking on map

Real-time ground track for satellite SWAS.

In-orbit conjunctions

A list of the most updated potential collisions computed for object SWAS.

Target Orbit TCA Probability of collision Miss distance Type
OKEAN 3 LEO 2025-09-25 12:20:39 0.0004068944 514.0 (m) PAYLOAD
OBJECT C LEO 2025-05-13 12:26:43 0.0002735341 751.0 (m) UNKNOWN
OBJECT A LEO 2024-10-31 12:56:30 0.0001061881 906.0 (m) UNKNOWN
COSMOS 2251 DEB LEO 2024-07-21 08:58:54 0.001497964 375.0 (m) DEBRIS
CZ-4C DEB SSO 2024-06-25 23:14:46 0.0005631964 104.0 (m) DEBRIS

Associated space launch

SWAS was lifted into orbit during the mission ‘Pegasus XL | Submillimeter Wave Astronomy Satellite (SWAS)’, on board a Pegasus XL space rocket.

The launch took place on Dec. 6, 1998, 12:57 a.m. from Vandenberg Space Force Base.

For more information about the launch, click the button.

Launch to space Pegasus XL | Submillimeter Wave Astronomy Satellite (SWAS)
Pegasus XL | Submillimeter Wave Astronomy Satellite (SWAS)

Agency: N/A

Status: Launch Successful

Launch date: Dec. 6, 1998, 12:57 a.m. UTC

Rocket: Pegasus XL

Launch pad: Vandenberg Space Force Base

Location: Air launch to orbit

...

Latest news about this satellite

There are no fresh news available about this satellite. Check back as we update our databases every day.


Newsletter sign-up

Weekly statistics, charts and insights to help you stay on top of the space industry.